Regional Weather Roundup
Issued by NWS

Home | Current Version | Previous Version | Graphics & Text | Print | Product List | Glossary Off
Versions: 1 2 3 4 5 6 7 8 9 10 11 12 13 14 15 16 17 18 19 20 21 22 23 24 25 26 27 28 29 30 31 32 33 34 35 36 37 38 39 40 41 42 43 44 45 46 47 48 49 50

000
ASUS45 KSLC 221010
RWRUT

UTAH REGIONAL WEATHER ROUNDUP
NATIONAL WEATHER SERVICE SALT LAKE CITY UT
400 AM MDT TUE AUG 22 2017

UTZ001>011-023>025-221100-

NORTHERN UTAH

CITY           SKY/WX    TMP DP  RH WIND       PRES   REMARKS
BRIGHAM CITY     N/A     62  39  43 NW6       30.17S
HILL AFB         N/A     67  40  36 E15       30.18F
LOGAN            N/A     59  44  57 W3        30.20R
OGDEN            N/A     66  41  40 S8        30.15F
SALT LAKE CITY   N/A     72  45  37 SE5       30.15S
TOOELE VALLEY    N/A     64  43  45 S8        30.16S
WENDOVER         N/A     70  34  26 NW5       30.14F
HEBER CITY       N/A     54  45  71 CALM      30.27S
WEST JORDAN      N/A     71  53  53 S9        30.18S

$$

UTZ011>015-024>027-221100-

CENTRAL/NORTHEAST UTAH

CITY           SKY/WX    TMP DP  RH WIND       PRES   REMARKS
PROVO AIRPORT  NOT AVBL
MOAB/CANYONLAN   N/A     72  41  32 CALM      30.16R
DELTA            N/A     66  45  45 CALM      30.18S
PRICE            N/A     64  38  38 E5        30.25R
RICHFIELD      CLEAR     57  55  94 CALM      30.28R
ROOSEVELT      CLOUDY    59  43  55 W5        30.23R
VERNAL         CLEAR     60  41  49 W5        30.21S

$$

UTZ013>016-019>022-027-221100-

SOUTHERN UTAH

CITY           SKY/WX    TMP DP  RH WIND       PRES   REMARKS
BRYCE CANYON   CLOUDY    53  50  89 SW6       30.43R
CEDAR CITY       N/A     60  51  72 NE7       30.25S
MILFORD        MOCLDY    65  50  58 S8        30.22R
ST GEORGE      CLOUDY    76  54  46 N6        30.08F
HANKSVILLE       N/A     64  37  36 CALM      30.19R
KANAB          MOCLDY    64  54  68 CALM      30.30R
BLANDING         N/A     65  46  49 NE5       30.37R

$$

REGIONAL REPORTS     COLORADO/ARIZONA

CITY           SKY/WX    TMP DP  RH WIND       PRES   REMARKS
CRAIG, CO      CLEAR     47  37  68 CALM      30.32R
GRAND JUNCTION PTCLDY    71  45  39 E13       30.20S
RIFLE, CO      PTCLDY    61  40  45 SW3       30.27S
MONTROSE, CO   CLEAR     59  43  55 S10       30.31S
CORTEZ, CO     CLOUDY    56  53  90 SE6       30.31S
COLORADO CITY  PTSUNNY   66  52  59 E15       30.26R
PAGE, AZ       CLOUDY    77  48  35 SW8       30.18R
GRAND CANYON     N/A     55  54  96 CALM      30.34F
KINGMAN, AZ      N/A     60  55  83 SW3       30.12S
FLAGSTAFF, AZ  LGT RAIN  52  50  93 CALM      30.37S FOG

$$

REGIONAL REPORTS    NEVADA/IDAHO/WYOMING

CITY           SKY/WX    TMP DP  RH WIND       PRES   REMARKS
LAS VEGAS, NV    N/A     79  53  40 SW3       30.03S
ELY, NY        CLOUDY    61  41  47 SE5       30.30S
ELKO, NV         N/A     67  33  28 NW3       30.19R
POCATELLO, ID  CLOUDY    52  36  54 E7        30.19F
BURLEY, ID       N/A     50  41  71 SE3       30.15S
FORT BRIDGER,    N/A     61  32  33 W8        30.38S
EVANSTON, WY   CLOUDY    57  36  45 SE7       30.36S
ROCK SPRINGS,  CLOUDY    58  35  42 SE8       30.34S
KEMMERER, WY     N/A     43  32  65 N8        30.38S

$$



USA.gov is the U.S. government's official web portal to all federal, state and local government web resources and services.